Date String (YYYY-MM-DD hh:mm:ss) UTC,Instrument flags,Ambient pressure (hPa),Sample flow (lpm),Bypass flow (lpm),Sample temperature (°C),Ambient temperature (°C),ASC tube jacket temperature (°C),LED temperature (°C),Box temperature (°C),Sample RH (%),Span deviation,Mass concentration (μg/m³),Mass concentration (μg/m³),Mass concentration (μg/m³)
DateTimeUTC,F1_M11,P_M11,Q1_M11,Q2_M11,T1_M11,T2_M11,T3_M11,T4_M11,T5_M11,U1_M11,ZSPAN_M11,X0_M11,X2_M11,X1_M11
2022-02-18 08:00:00,,0825.1,5.01,0.00,22.3,21.9,00.0,31.2,24.0,07.1,0000.0,0003.09,0001.53,0001.27
2022-02-18 08:01:00,,0825.1,5.00,0.00,22.3,21.8,00.0,31.2,24.0,07.1,0000.0,0002.97,0001.59,0001.33
2022-02-18 08:02:00,,0825.2,4.99,0.00,22.3,21.8,00.0,31.2,24.0,07.1,0000.0,0002.64,0001.61,0001.37
2022-02-18 08:03:00,,0825.2,5.00,0.00,22.2,21.7,00.0,31.2,23.9,07.2,0000.0,0002.85,0001.66,0001.41
2022-02-18 08:04:00,,0825.2,5.01,0.00,22.2,21.6,00.0,31.2,23.9,07.1,0000.0,0003.02,0001.71,0001.44
2022-02-18 08:05:00,,0825.3,4.99,0.00,22.2,21.6,00.0,31.2,23.9,07.2,0000.0,0003.21,0001.78,0001.49
2022-02-18 08:06:00,,0825.3,5.01,0.00,22.2,21.5,00.0,31.2,23.9,07.2,0000.0,0003.08,0001.84,0001.51
2022-02-18 08:07:00,,0825.3,4.99,0.00,22.2,21.5,00.0,31.2,23.9,07.2,0000.0,0003.17,0001.92,0001.52
2022-02-18 08:08:00,,0825.3,4.99,0.00,22.1,21.4,00.0,31.2,23.9,07.7,0000.0,0004.46,0002.38,0001.76
2022-02-18 08:09:00,,0825.3,5.02,0.00,22.1,21.4,00.0,31.2,23.9,07.8,0000.0,0006.51,0002.85,0002.12
2022-02-18 08:10:00,,0825.4,4.99,0.00,22.1,21.5,00.0,31.2,23.8,07.8,0000.0,0008.17,0003.23,0002.47
2022-02-18 08:11:00,,0825.4,4.98,0.00,22.2,22.2,00.0,31.2,24.0,07.9,0000.0,0009.01,0003.53,0002.88
2022-02-18 08:12:00,,0825.5,4.99,0.00,22.3,22.9,00.0,31.3,24.3,08.0,0000.0,0010.21,0003.86,0003.20
2022-02-18 08:13:00,,0825.5,5.01,0.00,22.5,23.2,00.0,31.3,24.5,08.1,0000.0,0011.27,0004.27,0003.47
2022-02-18 08:14:00,,0825.5,5.01,0.00,22.5,22.9,00.0,31.3,24.5,08.1,0000.0,0012.67,0004.63,0003.73
2022-02-18 08:15:00,,0825.6,5.00,0.00,22.5,22.6,00.0,31.3,24.4,08.1,0000.0,0013.66,0004.97,0003.98
2022-02-18 08:16:00,,0825.6,5.00,0.00,22.5,22.4,00.0,31.3,24.3,08.2,0000.0,0015.13,0005.27,0004.23
2022-02-18 08:17:00,,0825.6,5.00,0.00,22.5,22.2,00.0,31.3,24.3,08.1,0000.0,0016.55,0005.59,0004.47
2022-02-18 08:18:00,,0825.6,4.99,0.00,22.5,22.0,00.0,31.3,24.2,08.1,0000.0,0017.79,0005.92,0004.71
2022-02-18 08:19:00,,0825.5,4.99,0.00,22.4,21.9,00.0,31.3,24.2,08.2,0000.0,0018.38,0006.07,0004.88
2022-02-18 08:20:00,,0825.6,5.02,0.00,22.4,21.8,00.0,31.3,24.1,08.2,0000.0,0018.27,0006.18,0004.97
2022-02-18 08:21:00,,0825.6,4.99,0.00,22.4,21.7,00.0,31.3,24.1,08.2,0000.2,0018.34,0006.34,0005.07
2022-02-18 08:22:00,,0825.6,5.00,0.00,22.3,21.6,00.0,31.3,24.1,08.2,0000.1,0018.53,0006.42,0005.12
2022-02-18 08:23:00,,0825.7,5.02,0.00,22.3,21.6,00.0,31.3,24.0,08.2,0001.5,0017.95,0006.42,0005.16
2022-02-18 08:24:00,,0825.7,4.99,0.00,22.3,21.5,00.0,31.3,24.0,08.1,0000.8,0017.70,0006.34,0005.13
2022-02-18 08:25:00,,0825.8,5.01,0.00,22.3,21.4,00.0,31.3,24.0,08.1,0000.9,0017.50,0006.31,0005.07
2022-02-18 08:26:00,,0825.8,5.00,0.00,22.3,21.4,00.0,31.3,24.0,08.1,0000.1,0017.12,0006.31,0005.05
2022-02-18 08:27:00,,0825.8,4.99,0.00,22.3,21.8,00.0,31.3,24.0,08.2,0001.5,0017.00,0006.38,0005.07
2022-02-18 08:28:00,,0825.9,4.99,0.00,22.4,22.5,00.0,31.3,24.2,08.2,0002.8,0017.04,0006.42,0005.12
2022-02-18 08:29:00,,0826.0,4.99,0.00,22.5,23.2,00.0,31.4,24.5,08.1,0003.2,0016.62,0006.44,0005.17
2022-02-18 08:30:00,,0826.0,5.01,0.00,22.6,23.0,00.0,31.4,24.5,08.1,0002.4,0016.38,0006.41,0005.15
2022-02-18 08:31:00,,0826.0,5.00,0.00,22.6,22.8,00.0,31.4,24.5,08.0,0002.2,0016.93,0006.47,0005.17
2022-02-18 08:32:00,,0826.0,4.99,0.00,22.6,22.5,00.0,31.4,24.4,08.0,0003.0,0016.49,0006.47,0005.18
2022-02-18 08:33:00,,0826.0,5.00,0.00,22.6,22.2,00.0,31.4,24.3,08.0,0002.6,0016.04,0006.45,0005.19
2022-02-18 08:34:00,,0826.0,5.02,0.00,22.5,22.0,00.0,31.4,24.2,07.9,0002.7,0015.86,0006.45,0005.19
2022-02-18 08:35:00,,0826.0,4.99,0.00,22.5,21.9,00.0,31.4,24.2,07.9,0001.9,0015.68,0006.43,0005.20
2022-02-18 08:36:00,,0826.0,5.00,0.00,22.4,21.7,00.0,31.4,24.1,07.8,0003.6,0014.66,0006.35,0005.24
2022-02-18 08:37:00,,0826.0,5.01,0.00,22.4,21.6,00.0,31.4,24.1,07.8,0003.4,0014.34,0006.29,0005.26
2022-02-18 08:38:00,,0826.0,4.99,0.00,22.4,21.6,00.0,31.4,24.1,07.7,0002.7,0013.48,0006.19,0005.21
2022-02-18 08:39:00,,0826.1,5.01,0.00,22.3,21.5,00.0,31.4,24.0,07.5,0002.6,0012.51,0006.04,0005.11
2022-02-18 08:40:00,,0826.1,5.00,0.00,22.3,21.4,00.0,31.3,24.0,07.6,0002.2,0011.69,0005.92,0005.01
2022-02-18 08:41:00,,0826.1,4.99,0.00,22.3,21.4,00.0,31.3,24.0,07.6,0002.2,0011.42,0005.84,0004.96
2022-02-18 08:42:00,,0826.2,5.02,0.00,22.3,21.3,00.0,31.3,24.0,07.6,0000.3,0010.01,0005.63,0004.88
2022-02-18 08:43:00,,0826.2,4.99,0.00,22.2,21.3,00.0,31.3,23.9,07.7,0000.0,0009.37,0005.49,0004.82
2022-02-18 08:44:00,,0826.2,4.98,0.00,22.2,21.6,00.0,31.3,23.9,07.7,0000.0,0008.95,0005.36,0004.78
2022-02-18 08:45:00,,0826.2,5.01,0.00,22.3,22.4,00.0,31.3,24.2,07.7,0000.0,0008.80,0005.31,0004.76
2022-02-18 08:46:00,,0826.2,5.01,0.00,22.5,23.1,00.0,31.4,24.4,07.7,0000.0,0009.11,0005.31,0004.75
2022-02-18 08:47:00,,0826.2,4.99,0.00,22.6,23.1,00.0,31.4,24.5,07.6,0000.0,0009.24,0005.33,0004.74
2022-02-18 08:48:00,,0826.2,5.00,0.00,22.6,22.8,00.0,31.4,24.5,07.5,0000.0,0009.18,0005.27,0004.68
2022-02-18 08:49:00,,0826.1,5.01,0.00,22.6,22.6,00.0,31.4,24.4,07.4,0000.0,0009.04,0005.18,0004.61
2022-02-18 08:50:00,,0826.2,5.00,0.00,22.5,22.3,00.0,31.4,24.3,07.4,0000.0,0009.02,0005.19,0004.64
2022-02-18 08:51:00,,0826.3,4.99,0.00,22.5,22.1,00.0,31.4,24.2,07.5,0000.0,0009.29,0005.22,0004.67
2022-02-18 08:52:00,,0826.3,5.01,0.00,22.5,22.0,00.0,31.4,24.2,07.6,0000.0,0009.46,0005.27,0004.71
2022-02-18 08:53:00,,0826.2,4.99,0.00,22.4,21.9,00.0,31.4,24.1,07.6,0000.0,0009.48,0005.32,0004.74
2022-02-18 08:54:00,,0826.2,4.99,0.00,22.4,21.8,00.0,31.4,24.0,07.3,0000.0,0009.32,0005.24,0004.66
2022-02-18 08:55:00,,0826.2,5.01,0.00,22.3,21.7,00.0,31.4,24.0,07.3,0000.0,0009.19,0005.15,0004.57
2022-02-18 08:56:00,,0826.2,5.00,0.00,22.3,21.6,00.0,31.3,24.0,07.3,0000.0,0008.97,0005.02,0004.49
2022-02-18 08:57:00,,0826.3,5.00,0.00,22.3,21.5,00.0,31.3,23.9,07.2,0000.0,0008.38,0004.83,0004.37
2022-02-18 08:58:00,,0826.2,5.00,0.00,22.2,21.5,00.0,31.3,23.9,07.2,0000.0,0007.94,0004.65,0004.24
2022-02-18 08:59:00,,0826.2,5.01,0.00,22.2,21.4,00.0,31.3,23.8,07.2,0000.0,0008.51,0004.55,0004.15
